GLT6 KTUS-KTEX

Flight info

Callsign GLT6
Flight time 1h 4m
Altitude 31000
Route WLDKT4 BBALL PXR INW ETL
Aircraft E45X/M-SABDFGRW/S

Departure

Time 2026-05-04 02:53
Airport Tucson International Airport (KTUS)

Arrival

Time 2026-05-04 03:57
Airport Telluride Regional Airport (KTEX)
Time Latitude Longitude Altitude Speed Heading
2026-05-04 02:29 32.12563 -110.94554 2579 ft 0 kts 133°
2026-05-04 02:43 32.12558 -110.94533 2579 ft 5 kts 83°
2026-05-04 02:43 32.12591 -110.94524 2578 ft 7 kts 319°
2026-05-04 02:43 32.12625 -110.94575 2576 ft 7 kts 277°
2026-05-04 02:44 32.12596 -110.94625 2577 ft 8 kts 224°
2026-05-04 02:44 32.12552 -110.94677 2577 ft 9 kts 224°
2026-05-04 02:44 32.12495 -110.94721 2577 ft 10 kts 175°
2026-05-04 02:44 32.12442 -110.94672 2579 ft 9 kts 134°
2026-05-04 02:45 32.12391 -110.94611 2581 ft 11 kts 135°
2026-05-04 02:45 32.12336 -110.94546 2583 ft 10 kts 135°
2026-05-04 02:45 32.12281 -110.94482 2586 ft 13 kts 136°
2026-05-04 02:45 32.12199 -110.94387 2589 ft 17 kts 134°
2026-05-04 02:46 32.12117 -110.94289 2592 ft 16 kts 134°
2026-05-04 02:46 32.12037 -110.94196 2596 ft 17 kts 136°
2026-05-04 02:46 32.11941 -110.94084 2600 ft 19 kts 135°
2026-05-04 02:46 32.11846 -110.93971 2603 ft 19 kts 134°
2026-05-04 02:47 32.11750 -110.93859 2605 ft 19 kts 136°
2026-05-04 02:47 32.11655 -110.93748 2609 ft 18 kts 136°
2026-05-04 02:47 32.11564 -110.93641 2612 ft 17 kts 134°
2026-05-04 02:47 32.11478 -110.93538 2616 ft 17 kts 136°
2026-05-04 02:48 32.11388 -110.93435 2618 ft 19 kts 135°
2026-05-04 02:48 32.11291 -110.93320 2620 ft 19 kts 135°
2026-05-04 02:48 32.11192 -110.93205 2622 ft 21 kts 136°
2026-05-04 02:48 32.11086 -110.93081 2626 ft 21 kts 135°
2026-05-04 02:49 32.10984 -110.92962 2630 ft 20 kts 134°
2026-05-04 02:49 32.10883 -110.92841 2633 ft 20 kts 135°
2026-05-04 02:49 32.10782 -110.92725 2637 ft 19 kts 135°
2026-05-04 02:49 32.10688 -110.92614 2641 ft 18 kts 134°
2026-05-04 02:50 32.10600 -110.92509 2645 ft 17 kts 135°
2026-05-04 02:50 32.10513 -110.92408 2647 ft 17 kts 135°
2026-05-04 02:50 32.10432 -110.92313 2650 ft 11 kts 135°
2026-05-04 02:50 32.10386 -110.92258 2652 ft 4 kts 135°
2026-05-04 02:51 32.10355 -110.92230 2653 ft 6 kts 155°
2026-05-04 02:51 32.10314 -110.92243 2652 ft 8 kts 224°
2026-05-04 02:51 32.10266 -110.92300 2651 ft 10 kts 226°
2026-05-04 02:51 32.10259 -110.92348 2650 ft 7 kts 299°
2026-05-04 02:52 32.10322 -110.92426 2647 ft 30 kts 315°
2026-05-04 02:52 32.10669 -110.92831 2636 ft 108 kts 315°
2026-05-04 02:52 32.11364 -110.93635 2634 ft 165 kts 315°
2026-05-04 02:52 32.12302 -110.94566 2904 ft 185 kts 315°
2026-05-04 02:53 32.13324 -110.95575 3278 ft 200 kts 315°
2026-05-04 02:53 32.14298 -110.96735 3832 ft 202 kts 307°
2026-05-04 02:53 32.15288 -110.97987 4260 ft 214 kts 309°
2026-05-04 02:53 32.16353 -110.99255 4703 ft 224 kts 309°
2026-05-04 02:54 32.17442 -111.00597 5199 ft 229 kts 308°
2026-05-04 02:54 32.18541 -111.01956 5769 ft 230 kts 308°
2026-05-04 02:54 32.19691 -111.03323 6208 ft 238 kts 309°
2026-05-04 02:54 32.20841 -111.04748 6673 ft 242 kts 308°
2026-05-04 02:55 32.23573 -111.07406 7127 ft 278 kts 336°
2026-05-04 02:55 32.25340 -111.08321 7652 ft 271 kts 329°
2026-05-04 02:55 32.27022 -111.09293 7962 ft 276 kts 330°
2026-05-04 02:56 32.28859 -111.10330 8248 ft 299 kts 331°
2026-05-04 02:56 32.30739 -111.11391 9141 ft 298 kts 331°
2026-05-04 02:56 32.32567 -111.12425 10009 ft 296 kts 331°
2026-05-04 02:56 32.34435 -111.13483 10783 ft 298 kts 331°
2026-05-04 02:57 32.36350 -111.14568 11054 ft 320 kts 331°
2026-05-04 02:57 32.38438 -111.15752 11080 ft 348 kts 331°
2026-05-04 02:57 32.40669 -111.17014 11581 ft 357 kts 331°
2026-05-04 02:57 32.42910 -111.18284 12427 ft 355 kts 331°
2026-05-04 02:58 32.45143 -111.19552 13163 ft 356 kts 331°
2026-05-04 02:58 32.47364 -111.20812 13818 ft 359 kts 331°
2026-05-04 02:58 32.49630 -111.22098 14476 ft 361 kts 330°
2026-05-04 02:58 32.51886 -111.23381 15180 ft 361 kts 329°
2026-05-04 02:59 32.54169 -111.24679 15772 ft 365 kts 329°
2026-05-04 02:59 32.56455 -111.25979 16378 ft 367 kts 330°
2026-05-04 02:59 32.58749 -111.27283 17061 ft 367 kts 329°
2026-05-04 02:59 32.61069 -111.28605 17601 ft 372 kts 329°
2026-05-04 03:00 32.63411 -111.29939 18198 ft 373 kts 328°
2026-05-04 03:00 32.65729 -111.31261 18807 ft 373 kts 328°
2026-05-04 03:00 32.68070 -111.32598 19295 ft 377 kts 328°
2026-05-04 03:00 32.70459 -111.33961 19878 ft 378 kts 328°
2026-05-04 03:01 32.72830 -111.35315 20458 ft 378 kts 327°
2026-05-04 03:01 32.75180 -111.36659 21032 ft 379 kts 328°
2026-05-04 03:01 32.77573 -111.38027 21512 ft 382 kts 327°
2026-05-04 03:01 32.79964 -111.39396 21997 ft 384 kts 327°
2026-05-04 03:02 32.82390 -111.40785 22497 ft 385 kts 327°
2026-05-04 03:02 32.84787 -111.42158 23058 ft 385 kts 327°
2026-05-04 03:02 32.87194 -111.43539 23562 ft 386 kts 326°
2026-05-04 03:02 32.89608 -111.44923 24013 ft 388 kts 326°
2026-05-04 03:03 32.92055 -111.46327 24608 ft 386 kts 326°
2026-05-04 03:03 32.94453 -111.47705 25157 ft 385 kts 325°
2026-05-04 03:03 32.96771 -111.49223 25588 ft 379 kts 318°
2026-05-04 03:03 32.98803 -111.51147 25981 ft 373 kts 310°
2026-05-04 03:04 33.00771 -111.53194 26637 ft 369 kts 311°
2026-05-04 03:04 33.02696 -111.55173 27252 ft 365 kts 310°
2026-05-04 03:04 33.04623 -111.57151 27753 ft 365 kts 310°
2026-05-04 03:04 33.06533 -111.59107 28331 ft 362 kts 310°
2026-05-04 03:05 33.08426 -111.61050 28848 ft 360 kts 310°
2026-05-04 03:05 33.10319 -111.62991 29352 ft 358 kts 309°
2026-05-04 03:05 33.12206 -111.64925 29961 ft 353 kts 309°
2026-05-04 03:05 33.14024 -111.66791 30765 ft 342 kts 308°
2026-05-04 03:06 33.15847 -111.68671 30882 ft 351 kts 308°
2026-05-04 03:06 33.17756 -111.70637 30899 ft 363 kts 309°
2026-05-04 03:06 33.19726 -111.72665 30904 ft 374 kts 309°
2026-05-04 03:07 33.23765 -111.76820 30894 ft 385 kts 309°
2026-05-04 03:07 33.27857 -111.81039 30885 ft 392 kts 309°
2026-05-04 03:08 33.32049 -111.85367 30878 ft 398 kts 310°
2026-05-04 03:08 33.36305 -111.89654 30871 ft 399 kts 314°
2026-05-04 03:09 33.41433 -111.92594 30874 ft 420 kts 332°
2026-05-04 03:09 33.44330 -111.93285 30877 ft 433 kts 341°
2026-05-04 03:09 33.47389 -111.93417 30886 ft 446 kts 349°
2026-05-04 03:09 33.50554 -111.92962 30881 ft 460 kts 359°
2026-05-04 03:10 33.53691 -111.91914 30887 ft 473 kts
2026-05-04 03:10 33.56827 -111.90228 30884 ft 486 kts 17°
2026-05-04 03:10 33.59730 -111.88013 30894 ft 502 kts 26°
2026-05-04 03:10 33.62450 -111.85242 30900 ft 519 kts 36°
2026-05-04 03:11 33.64979 -111.82085 30912 ft 523 kts 36°
2026-05-04 03:11 33.70800 -111.76869 30923 ft 508 kts 18°
2026-05-04 03:12 33.77070 -111.73035 30945 ft 510 kts 19°
2026-05-04 03:12 33.83264 -111.68678 30968 ft 508 kts 20°
2026-05-04 03:13 33.89369 -111.64324 31011 ft 505 kts 19°
2026-05-04 03:13 33.95371 -111.60033 31072 ft 501 kts 20°
2026-05-04 03:14 34.01345 -111.55754 31114 ft 498 kts 20°
2026-05-04 03:14 34.07303 -111.51482 31141 ft 498 kts 20°
2026-05-04 03:15 34.13276 -111.47190 31111 ft 501 kts 20°
2026-05-04 03:15 34.19272 -111.42874 31085 ft 503 kts 20°
2026-05-04 03:16 34.25304 -111.38525 31088 ft 504 kts 21°
2026-05-04 03:16 34.31364 -111.34148 31086 ft 505 kts 21°
2026-05-04 03:17 34.37401 -111.29782 31104 ft 504 kts 22°
2026-05-04 03:17 34.43443 -111.25404 31126 ft 504 kts 22°
2026-05-04 03:18 34.49510 -111.21000 31152 ft 503 kts 22°
2026-05-04 03:18 34.55481 -111.16658 31182 ft 502 kts 22°
2026-05-04 03:19 34.61501 -111.12273 31178 ft 502 kts 22°
2026-05-04 03:19 34.67477 -111.07913 31169 ft 502 kts 22°
2026-05-04 03:20 34.73470 -111.03533 31168 ft 502 kts 22°
2026-05-04 03:20 34.79432 -110.99169 31145 ft 503 kts 22°
2026-05-04 03:21 34.85458 -110.94750 31141 ft 503 kts 23°
2026-05-04 03:21 34.91486 -110.90321 31123 ft 504 kts 22°
2026-05-04 03:22 34.97454 -110.85931 31119 ft 504 kts 23°
2026-05-04 03:22 35.03455 -110.81508 31076 ft 504 kts 23°
2026-05-04 03:23 35.09466 -110.76975 31075 ft 505 kts 24°
2026-05-04 03:23 35.15398 -110.72414 31079 ft 505 kts 24°
2026-05-04 03:24 35.21333 -110.67843 31098 ft 505 kts 24°
2026-05-04 03:24 35.27291 -110.63247 31118 ft 504 kts 24°
2026-05-04 03:25 35.33204 -110.58679 31122 ft 504 kts 24°
2026-05-04 03:25 35.39148 -110.54078 31125 ft 504 kts 24°
2026-05-04 03:26 35.45082 -110.49477 31129 ft 504 kts 24°
2026-05-04 03:26 35.51027 -110.44859 31138 ft 504 kts 24°
2026-05-04 03:27 35.56918 -110.40276 31146 ft 504 kts 24°
2026-05-04 03:27 35.62835 -110.35663 31152 ft 504 kts 24°
2026-05-04 03:28 35.68774 -110.31025 31143 ft 503 kts 24°
2026-05-04 03:28 35.74655 -110.26424 31151 ft 502 kts 25°
2026-05-04 03:29 35.80559 -110.21798 31157 ft 502 kts 24°
2026-05-04 03:29 35.86425 -110.17192 31159 ft 501 kts 24°
2026-05-04 03:30 35.92291 -110.12579 31155 ft 500 kts 24°
2026-05-04 03:30 35.98141 -110.07970 31162 ft 499 kts 24°
2026-05-04 03:31 36.03997 -110.03348 31174 ft 498 kts 24°
2026-05-04 03:31 36.09814 -109.98748 31178 ft 495 kts 24°
2026-05-04 03:32 36.15612 -109.94157 31176 ft 494 kts 24°
2026-05-04 03:32 36.21398 -109.89565 31164 ft 493 kts 24°
2026-05-04 03:33 36.27210 -109.84945 31141 ft 493 kts 24°
2026-05-04 03:33 36.32946 -109.80376 31151 ft 492 kts 24°
2026-05-04 03:34 36.38709 -109.75779 31137 ft 493 kts 24°
2026-05-04 03:34 36.44479 -109.71167 31134 ft 493 kts 24°
2026-05-04 03:35 36.50220 -109.66570 31123 ft 493 kts 24°
2026-05-04 03:35 36.56006 -109.61930 31125 ft 494 kts 24°
2026-05-04 03:36 36.61791 -109.57282 31135 ft 493 kts 25°
2026-05-04 03:36 36.67529 -109.52663 31131 ft 494 kts 25°
2026-05-04 03:37 36.73369 -109.47954 31126 ft 494 kts 25°
2026-05-04 03:37 36.79131 -109.43298 31132 ft 495 kts 25°
2026-05-04 03:38 36.84889 -109.38638 31140 ft 496 kts 25°
2026-05-04 03:38 36.90781 -109.33860 31108 ft 496 kts 26°
2026-05-04 03:39 36.96582 -109.29147 31100 ft 496 kts 26°
2026-05-04 03:39 37.02334 -109.24466 31086 ft 497 kts 26°
2026-05-04 03:40 37.08125 -109.19745 31090 ft 497 kts 26°
2026-05-04 03:40 37.13943 -109.14991 31081 ft 496 kts 26°
2026-05-04 03:41 37.19732 -109.10253 31087 ft 496 kts 27°
2026-05-04 03:41 37.25526 -109.05502 31090 ft 496 kts 27°
2026-05-04 03:42 37.31217 -109.00826 31094 ft 481 kts 26°
2026-05-04 03:42 37.36737 -108.96285 30792 ft 475 kts 27°
2026-05-04 03:42 37.39498 -108.94009 30498 ft 473 kts 27°
2026-05-04 03:43 37.42249 -108.91742 30075 ft 476 kts 28°
2026-05-04 03:43 37.45039 -108.89439 29533 ft 480 kts 28°
2026-05-04 03:43 37.47831 -108.87131 28982 ft 483 kts 29°
2026-05-04 03:43 37.50632 -108.84814 28423 ft 484 kts 29°
2026-05-04 03:44 37.53446 -108.82484 27865 ft 486 kts 30°
2026-05-04 03:44 37.56292 -108.80127 27305 ft 487 kts 30°
2026-05-04 03:44 37.59132 -108.77771 26756 ft 488 kts 30°
2026-05-04 03:44 37.61967 -108.75418 26207 ft 488 kts 31°
2026-05-04 03:45 37.64777 -108.73083 25609 ft 489 kts 31°
2026-05-04 03:45 37.67634 -108.70707 24970 ft 489 kts 31°
2026-05-04 03:45 37.70455 -108.68359 24322 ft 483 kts 31°
2026-05-04 03:45 37.73186 -108.66082 23595 ft 459 kts 32°
2026-05-04 03:46 37.75747 -108.63945 22918 ft 425 kts 31°
2026-05-04 03:46 37.78162 -108.61931 22333 ft 414 kts 31°
2026-05-04 03:46 37.80535 -108.59949 21716 ft 405 kts 31°
2026-05-04 03:46 37.82843 -108.58019 21211 ft 395 kts 31°
2026-05-04 03:47 37.85103 -108.56130 20749 ft 384 kts 31°
2026-05-04 03:47 37.87324 -108.54270 20284 ft 375 kts 31°
2026-05-04 03:47 37.89441 -108.52496 19753 ft 356 kts 31°
2026-05-04 03:47 37.91464 -108.50798 19421 ft 338 kts 31°
2026-05-04 03:48 37.93368 -108.49200 18893 ft 329 kts 31°
2026-05-04 03:48 37.95250 -108.47620 18368 ft 320 kts 31°
2026-05-04 03:48 37.96960 -108.45832 17770 ft 317 kts 50°
2026-05-04 03:48 37.98007 -108.43465 17172 ft 303 kts 66°
2026-05-04 03:49 37.98830 -108.41086 16626 ft 289 kts 66°
2026-05-04 03:49 37.99610 -108.38810 16088 ft 278 kts 66°
2026-05-04 03:49 38.00357 -108.36623 15817 ft 257 kts 66°
2026-05-04 03:49 38.01038 -108.34628 15772 ft 249 kts 67°
2026-05-04 03:50 38.01723 -108.32622 15707 ft 248 kts 67°
2026-05-04 03:50 38.02411 -108.30604 15635 ft 248 kts 68°
2026-05-04 03:50 38.03086 -108.28621 15562 ft 245 kts 67°
2026-05-04 03:50 38.03707 -108.26656 15466 ft 232 kts 79°
2026-05-04 03:51 38.03617 -108.24759 15449 ft 207 kts 110°
2026-05-04 03:51 38.03162 -108.23093 15314 ft 199 kts 113°
2026-05-04 03:51 38.02684 -108.21483 15187 ft 191 kts 115°
2026-05-04 03:51 38.02189 -108.19945 14804 ft 187 kts 115°
2026-05-04 03:52 38.01724 -108.18419 14493 ft 182 kts 114°
2026-05-04 03:52 38.01284 -108.16950 14176 ft 176 kts 115°
2026-05-04 03:52 38.00837 -108.15510 13862 ft 173 kts 115°
2026-05-04 03:52 38.00415 -108.14103 13585 ft 171 kts 113°
2026-05-04 03:53 38.00015 -108.12705 13303 ft 167 kts 111°
2026-05-04 03:53 37.99673 -108.11307 13049 ft 167 kts 107°
2026-05-04 03:53 37.99394 -108.09878 12796 ft 167 kts 107°
2026-05-04 03:53 37.99107 -108.08444 12541 ft 170 kts 107°
2026-05-04 03:54 37.98782 -108.07000 12268 ft 168 kts 108°
2026-05-04 03:54 37.98472 -108.05605 11977 ft 165 kts 107°
2026-05-04 03:54 37.98185 -108.04196 11688 ft 164 kts 105°
2026-05-04 03:54 37.97921 -108.02799 11398 ft 162 kts 106°
2026-05-04 03:55 37.97644 -108.01437 11112 ft 158 kts 106°
2026-05-04 03:55 37.97349 -108.00102 10809 ft 161 kts 108°
2026-05-04 03:55 37.97031 -107.98756 10648 ft 158 kts 108°
2026-05-04 03:55 37.96751 -107.97446 10257 ft 153 kts 103°
2026-05-04 03:56 37.96507 -107.96146 9854 ft 160 kts 105°
2026-05-04 03:56 37.96209 -107.94769 9596 ft 156 kts 105°
2026-05-04 03:56 37.95916 -107.93418 9262 ft 163 kts 105°
2026-05-04 03:56 37.95633 -107.92065 9068 ft 152 kts 104°
2026-05-04 03:57 37.95373 -107.90835 9023 ft 129 kts 105°
2026-05-04 03:57 37.95227 -107.90143 9065 ft 49 kts 104°
2026-05-04 03:57 37.95168 -107.89864 9080 ft 20 kts 104°
2026-05-04 03:57 37.95143 -107.89745 9090 ft 9 kts 102°
2026-05-04 03:58 37.95173 -107.89681 9099 ft 6 kts 16°
2026-05-04 03:58 37.95196 -107.89673 9101 ft 0 kts 15°
2026-05-04 03:58 37.95211 -107.89671 9102 ft 4 kts
2026-05-04 03:59 37.95243 -107.89702 9103 ft 9 kts 294°
2026-05-04 03:59 37.95246 -107.89716 9102 ft 0 kts 288°
2026-05-04 04:02 37.95260 -107.89769 9097 ft 11 kts 287°
2026-05-04 04:02 37.95283 -107.89873 9090 ft 14 kts 285°
2026-05-04 04:03 37.95305 -107.89975 9083 ft 13 kts 285°
2026-05-04 04:03 37.95323 -107.90057 9078 ft 9 kts 285°
2026-05-04 04:03 37.95353 -107.90115 9078 ft 4 kts 334°
2026-05-04 04:03 37.95368 -107.90115 9080 ft 1 kts 11°
2026-05-04 04:04 37.95389 -107.90115 9082 ft 2 kts 304°
2026-05-04 04:04 37.95385 -107.90120 9081 ft 0 kts 186°